This demonstration page uses our WeatherBlox Daily Observations layout. Learn more.

Left ArrowRight Arrow

41.55636, -103.73856

Hourly Observations for February 15, 2018

Temp ( °F °C ) Dew Point ( °F °C ) Humidity (%) Winds ( mph kmh ) Pressure ( in mb ) Visibility ( mi km ) Precip ( " mm )
12:53 am 00:53 Clear 34 1.1 27 -2.8 76 76 W 6 9 29.74 1007 10 16 N/A
1:53 am 01:53 Mostly Cloudy 35 1.7 29 -1.7 78 78 SE 5 7 29.75 1008 10 16 N/A
2:53 am 02:53 Cloudy 34 1.1 31 -0.6 89 89 ENE 6 9 29.72 1007 10 16 N/A
3:53 am 03:53 Cloudy 35 1.7 30 -1.1 82 82 N N/A 29.72 1007 10 16 N/A
4:53 am 04:53 Cloudy 36 2.2 27 -2.8 70 70 WNW 7 11 29.73 1007 10 16 N/A
5:53 am 05:53 Partly Cloudy 37 2.8 26 -3.3 65 65 W 9 15 29.78 1009 10 16 N/A
6:53 am 06:53 Sunny 37 2.8 23 -5 57 57 W 10 17 29.79 1009 10 16 N/A
7:53 am 07:53 Partly Cloudy 36 2.2 25 -3.9 64 64 WNW 7 11 29.83 1010 10 16 N/A
8:53 am 08:53 Sunny 43 6.1 25 -3.9 49 49 W 26 43 29.85 1011 10 16 N/A
9:53 am 09:53 Sunny 46 7.8 24 -4.4 42 42 W 23 37 29.87 1012 10 16 N/A
10:53 am 10:53 Sunny 48 8.9 22 -5.6 36 36 WNW 21 33 29.88 1012 10 16 N/A
11:53 am 11:53 Sunny 44 6.7 25 -3.9 47 47 NNW 30 48 29.92 1013 10 16 N/A
12:53 pm 12:53 Sunny 37 2.8 25 -3.9 62 62 N 22 35 30.01 1016 10 16 N/A
1:53 pm 13:53 Mostly Cloudy 36 2.2 24 -4.4 62 62 N 17 28 30.05 1018 10 16 N/A
2:37 pm 14:37 Mostly Cloudy 31 -0.6 19 -7.2 61 61 N 18 30 30.18 1022 10 16 N/A
2:53 pm 14:53 Mostly Sunny 31 -0.6 19 -7.2 61 61 N 18 30 30.12 1020 10 16 N/A
3:32 pm 15:32 Mostly Cloudy 27 -3 18 -8 69 69 N 18 30 30.30 1026 10 16 N/A
3:53 pm 15:53 Mostly Cloudy 26 -3.3 16 -8.9 66 66 N 18 30 30.20 1023 10 16 N/A
4:20 pm 16:20 Cloudy 25 -3.9 14 -10 63 63 N 13 20 30.30 1026 10 16 N/A
4:53 pm 16:53 Mostly Cloudy 24 -4.4 13 -10.6 62 62 N 18 30 30.26 1025 10 16 N/A
5:01 pm 17:01 Cloudy 23 -5 13 -10.6 65 65 N 16 26 30.36 1028 10 16 N/A
5:53 pm 17:53 Cloudy 22 -5.6 12 -11.1 66 66 N 16 26 30.30 1026 10 16 N/A
6:53 pm 18:53 Cloudy 19 -7.2 10 -12.2 68 68 N 13 20 30.36 1028 10 16 N/A
7:53 pm 19:53 Cloudy 18 -7.8 11 -11.7 74 74 N 10 17 30.39 1029 8 13 N/A
8:53 pm 20:53 Mostly Clear 17 -8.3 11 -11.7 77 77 NNW 6 9 30.41 1030 10 16 N/A
9:53 pm 21:53 Partly Cloudy 18 -7.8 12 -11.1 77 77 N 9 15 30.41 1030 10 16 N/A
10:53 pm 22:53 Clear 16 -8.9 11 -11.7 80 80 NNW 7 11 30.41 1030 10 16 N/A
11:53 pm 23:53 Clear 16 -8.9 11 -11.7 80 80 N N/A 30.42 1030 10 16 N/A

Powered by AerisWeather